AJAX45 YPAD-YPAD

Flight info

Callsign AJAX45
Flight time 0h 48m
Altitude 18000
Route DCT AD HAWKY MARGO AD
Aircraft B350/L-SDFGHRZ/EB1

Departure

Time 2026-05-06 00:38
Airport Adelaide International Airport (YPAD)

Arrival

Time 2026-05-06 01:26
Airport Adelaide International Airport (YPAD)
Time Latitude Longitude Altitude Speed Heading
2026-05-06 00:30 -34.95041 138.52214 28 ft 0 kts 142°
2026-05-06 00:30 -34.95045 138.52219 28 ft 2 kts 142°
2026-05-06 00:31 -34.95064 138.52237 28 ft 4 kts 137°
2026-05-06 00:31 -34.95089 138.52274 28 ft 6 kts 127°
2026-05-06 00:31 -34.95116 138.52316 28 ft 4 kts 128°
2026-05-06 00:31 -34.95129 138.52357 28 ft 6 kts 59°
2026-05-06 00:32 -34.95084 138.52400 28 ft 9 kts 37°
2026-05-06 00:32 -34.95025 138.52457 28 ft 11 kts 37°
2026-05-06 00:32 -34.94956 138.52522 28 ft 13 kts 38°
2026-05-06 00:32 -34.94879 138.52596 28 ft 14 kts 37°
2026-05-06 00:33 -34.94796 138.52673 28 ft 15 kts 37°
2026-05-06 00:33 -34.94710 138.52754 28 ft 15 kts 37°
2026-05-06 00:33 -34.94639 138.52821 28 ft 11 kts 39°
2026-05-06 00:33 -34.94571 138.52884 28 ft 13 kts 37°
2026-05-06 00:34 -34.94501 138.52949 28 ft 8 kts 37°
2026-05-06 00:34 -34.94455 138.52997 28 ft 10 kts 50°
2026-05-06 00:34 -34.94443 138.53084 30 ft 10 kts 110°
2026-05-06 00:34 -34.94480 138.53159 31 ft 9 kts 123°
2026-05-06 00:35 -34.94517 138.53247 31 ft 13 kts 101°
2026-05-06 00:35 -34.94496 138.53354 31 ft 11 kts 61°
2026-05-06 00:35 -34.94513 138.53429 31 ft 8 kts 128°
2026-05-06 00:35 -34.94528 138.53451 31 ft 0 kts 129°
2026-05-06 00:36 -34.94534 138.53461 31 ft 3 kts 128°
2026-05-06 00:36 -34.94553 138.53490 31 ft 5 kts 128°
2026-05-06 00:36 -34.94578 138.53534 31 ft 6 kts 123°
2026-05-06 00:37 -34.94607 138.53534 31 ft 2 kts 228°
2026-05-06 00:37 -34.94633 138.53497 31 ft 22 kts 229°
2026-05-06 00:38 -34.94921 138.53078 29 ft 107 kts 229°
2026-05-06 00:38 -34.95438 138.52309 451 ft 125 kts 231°
2026-05-06 00:38 -34.96020 138.51369 814 ft 154 kts 232°
2026-05-06 00:38 -34.96585 138.50207 1309 ft 163 kts 248°
2026-05-06 00:39 -34.96611 138.48846 1858 ft 172 kts 287°
2026-05-06 00:39 -34.95843 138.47754 2423 ft 178 kts 327°
2026-05-06 00:39 -34.94729 138.47148 3055 ft 177 kts 335°
2026-05-06 00:39 -34.93557 138.46613 3598 ft 183 kts 336°
2026-05-06 00:40 -34.92385 138.46103 4302 ft 183 kts 338°
2026-05-06 00:40 -34.91171 138.45621 4953 ft 185 kts 339°
2026-05-06 00:40 -34.90069 138.44869 5508 ft 185 kts 314°
2026-05-06 00:40 -34.89281 138.43651 6096 ft 184 kts 299°
2026-05-06 00:41 -34.88635 138.42328 6729 ft 184 kts 297°
2026-05-06 00:41 -34.88037 138.40976 7347 ft 184 kts 294°
2026-05-06 00:41 -34.87441 138.39590 7912 ft 187 kts 295°
2026-05-06 00:41 -34.86807 138.38213 8514 ft 191 kts 302°
2026-05-06 00:42 -34.86023 138.36896 9107 ft 194 kts 304°
2026-05-06 00:42 -34.85215 138.35577 9674 ft 196 kts 303°
2026-05-06 00:42 -34.84448 138.34212 10234 ft 199 kts 301°
2026-05-06 00:42 -34.83726 138.32790 10828 ft 199 kts 298°
2026-05-06 00:43 -34.83015 138.31349 11429 ft 198 kts 301°
2026-05-06 00:43 -34.82268 138.29964 11991 ft 199 kts 301°
2026-05-06 00:43 -34.81502 138.28557 12504 ft 203 kts 302°
2026-05-06 00:43 -34.80714 138.27139 13044 ft 205 kts 302°
2026-05-06 00:44 -34.79917 138.25708 13565 ft 207 kts 302°
2026-05-06 00:44 -34.79133 138.24249 14119 ft 205 kts 301°
2026-05-06 00:44 -34.78369 138.22804 14671 ft 204 kts 300°
2026-05-06 00:44 -34.77627 138.21362 15210 ft 203 kts 301°
2026-05-06 00:45 -34.76852 138.19952 15675 ft 204 kts 303°
2026-05-06 00:45 -34.76024 138.18535 16160 ft 204 kts 303°
2026-05-06 00:45 -34.75199 138.17154 16645 ft 204 kts 304°
2026-05-06 00:45 -34.74375 138.15732 17012 ft 208 kts 302°
2026-05-06 00:46 -34.73573 138.14282 17460 ft 207 kts 301°
2026-05-06 00:46 -34.72776 138.12817 17842 ft 210 kts 302°
2026-05-06 00:46 -34.71949 138.11325 18009 ft 223 kts 302°
2026-05-06 00:46 -34.71067 138.09697 17999 ft 240 kts 302°
2026-05-06 00:47 -34.70127 138.07948 17994 ft 252 kts 301°
2026-05-06 00:47 -34.69183 138.06142 18029 ft 257 kts 301°
2026-05-06 00:47 -34.68160 138.04324 17998 ft 261 kts 304°
2026-05-06 00:47 -34.67097 138.02536 18014 ft 262 kts 304°
2026-05-06 00:48 -34.66040 138.00729 17980 ft 263 kts 302°
2026-05-06 00:48 -34.65014 137.98920 17962 ft 263 kts 303°
2026-05-06 00:48 -34.64006 137.97082 17983 ft 261 kts 302°
2026-05-06 00:48 -34.63003 137.95233 17994 ft 260 kts 302°
2026-05-06 00:49 -34.62022 137.93411 17998 ft 260 kts 301°
2026-05-06 00:49 -34.61012 137.91580 18017 ft 260 kts 302°
2026-05-06 00:49 -34.59981 137.89775 17999 ft 261 kts 303°
2026-05-06 00:49 -34.58944 137.87973 17993 ft 261 kts 303°
2026-05-06 00:50 -34.57909 137.86195 18006 ft 260 kts 304°
2026-05-06 00:50 -34.56840 137.84415 17987 ft 261 kts 305°
2026-05-06 00:50 -34.55776 137.82625 17986 ft 261 kts 303°
2026-05-06 00:50 -34.54760 137.80815 18042 ft 258 kts 301°
2026-05-06 00:51 -34.54144 137.79565 18113 ft 255 kts 298°
2026-05-06 00:51 -34.53945 137.79155 18094 ft 257 kts 299°
2026-05-06 00:52 -34.53095 137.77234 17992 ft 259 kts 286°
2026-05-06 00:52 -34.52950 137.75120 17994 ft 256 kts 261°
2026-05-06 00:52 -34.53486 137.73048 17942 ft 256 kts 246°
2026-05-06 00:52 -34.53828 137.72008 17979 ft 255 kts 248°
2026-05-06 00:53 -34.54488 137.69989 17868 ft 259 kts 248°
2026-05-06 00:53 -34.55130 137.67976 17946 ft 255 kts 248°
2026-05-06 00:53 -34.55992 137.66128 18008 ft 251 kts 229°
2026-05-06 00:53 -34.57450 137.65039 18000 ft 251 kts 192°
2026-05-06 00:54 -34.59164 137.65149 18013 ft 252 kts 161°
2026-05-06 00:54 -34.60591 137.66370 18000 ft 256 kts 133°
2026-05-06 00:54 -34.61539 137.68205 18010 ft 258 kts 114°
2026-05-06 00:54 -34.62017 137.70277 18096 ft 257 kts 99°
2026-05-06 00:55 -34.61979 137.72440 18070 ft 261 kts 75°
2026-05-06 00:55 -34.61302 137.74521 17994 ft 266 kts 67°
2026-05-06 00:55 -34.60587 137.76555 18009 ft 262 kts 67°
2026-05-06 00:55 -34.59857 137.78586 17998 ft 258 kts 67°
2026-05-06 00:56 -34.59146 137.80568 17992 ft 254 kts 67°
2026-05-06 00:56 -34.58453 137.82484 18019 ft 250 kts 66°
2026-05-06 00:56 -34.57738 137.84392 18026 ft 247 kts 66°
2026-05-06 00:56 -34.57030 137.86291 18003 ft 245 kts 66°
2026-05-06 00:57 -34.56330 137.88165 18012 ft 243 kts 64°
2026-05-06 00:57 -34.55245 137.89720 17984 ft 242 kts 33°
2026-05-06 00:57 -34.53692 137.90353 18004 ft 238 kts
2026-05-06 00:57 -34.52115 137.89899 18015 ft 235 kts 327°
2026-05-06 00:58 -34.51019 137.88484 18037 ft 232 kts 295°
2026-05-06 00:58 -34.50677 137.86600 18017 ft 230 kts 264°
2026-05-06 00:58 -34.51225 137.84825 18021 ft 229 kts 231°
2026-05-06 00:58 -34.52383 137.83519 18020 ft 230 kts 218°
2026-05-06 00:59 -34.53635 137.82315 18037 ft 228 kts 218°
2026-05-06 00:59 -34.54895 137.81149 18024 ft 228 kts 217°
2026-05-06 00:59 -34.56170 137.79970 17997 ft 229 kts 217°
2026-05-06 00:59 -34.57427 137.78806 17999 ft 228 kts 217°
2026-05-06 01:00 -34.58695 137.77681 18015 ft 227 kts 216°
2026-05-06 01:00 -34.59949 137.76488 17985 ft 228 kts 221°
2026-05-06 01:00 -34.61010 137.75070 17985 ft 228 kts 234°
2026-05-06 01:00 -34.61750 137.73386 18006 ft 227 kts 248°
2026-05-06 01:01 -34.62107 137.72243 17992 ft 228 kts 249°
2026-05-06 01:01 -34.62408 137.71262 17992 ft 227 kts 248°
2026-05-06 01:01 -34.62996 137.69466 18067 ft 224 kts 247°
2026-05-06 01:01 -34.63577 137.67697 17995 ft 229 kts 247°
2026-05-06 01:02 -34.64449 137.66116 17997 ft 227 kts 218°
2026-05-06 01:02 -34.65895 137.65465 17995 ft 228 kts 180°
2026-05-06 01:02 -34.67463 137.65691 17967 ft 229 kts 183°
2026-05-06 01:02 -34.68925 137.65037 17994 ft 227 kts 218°
2026-05-06 01:03 -34.69817 137.63484 18036 ft 228 kts 252°
2026-05-06 01:03 -34.69807 137.61563 18019 ft 233 kts 288°
2026-05-06 01:03 -34.68833 137.60019 18036 ft 237 kts 324°
2026-05-06 01:03 -34.67282 137.59465 18041 ft 241 kts
2026-05-06 01:04 -34.65768 137.60261 18038 ft 242 kts 44°
2026-05-06 01:04 -34.64952 137.62032 17987 ft 243 kts 78°
2026-05-06 01:04 -34.64770 137.64062 17997 ft 243 kts 81°
2026-05-06 01:04 -34.64384 137.66063 18011 ft 244 kts 74°
2026-05-06 01:05 -34.63799 137.68007 18002 ft 245 kts 69°
2026-05-06 01:05 -34.63160 137.69904 18001 ft 244 kts 67°
2026-05-06 01:05 -34.62501 137.71817 17949 ft 245 kts 67°
2026-05-06 01:05 -34.61818 137.73702 17970 ft 243 kts 66°
2026-05-06 01:06 -34.61109 137.75554 18019 ft 241 kts 64°
2026-05-06 01:06 -34.60390 137.77376 17986 ft 242 kts 65°
2026-05-06 01:06 -34.59631 137.79224 17965 ft 246 kts 64°
2026-05-06 01:06 -34.58855 137.81088 17981 ft 248 kts 63°
2026-05-06 01:07 -34.58072 137.82930 17989 ft 249 kts 64°
2026-05-06 01:07 -34.57192 137.84747 17979 ft 251 kts 52°
2026-05-06 01:07 -34.56066 137.86389 17985 ft 253 kts 51°
2026-05-06 01:07 -34.54944 137.88042 17994 ft 254 kts 50°
2026-05-06 01:08 -34.53807 137.89685 18002 ft 254 kts 49°
2026-05-06 01:08 -34.52569 137.91208 18012 ft 255 kts 43°
2026-05-06 01:08 -34.51270 137.92688 17970 ft 257 kts 44°
2026-05-06 01:08 -34.49985 137.94196 17999 ft 256 kts 44°
2026-05-06 01:09 -34.48683 137.95683 17972 ft 258 kts 43°
2026-05-06 01:09 -34.47360 137.97151 17973 ft 258 kts 42°
2026-05-06 01:09 -34.46115 137.98706 17999 ft 257 kts 55°
2026-05-06 01:09 -34.45509 138.00705 18033 ft 253 kts 85°
2026-05-06 01:10 -34.45699 138.02771 18041 ft 250 kts 110°
2026-05-06 01:10 -34.46397 138.04723 18011 ft 251 kts 117°
2026-05-06 01:10 -34.47129 138.06650 17994 ft 252 kts 115°
2026-05-06 01:10 -34.47766 138.08627 17900 ft 257 kts 111°
2026-05-06 01:11 -34.48525 138.10614 17569 ft 268 kts 123°
2026-05-06 01:11 -34.49724 138.12384 17223 ft 275 kts 139°
2026-05-06 01:11 -34.51317 138.13676 16908 ft 279 kts 152°
2026-05-06 01:11 -34.53019 138.14822 16659 ft 282 kts 153°
2026-05-06 01:12 -34.54728 138.15990 16382 ft 286 kts 149°
2026-05-06 01:12 -34.56378 138.17333 16139 ft 289 kts 146°
2026-05-06 01:12 -34.57967 138.18825 15870 ft 292 kts 142°
2026-05-06 01:12 -34.59531 138.20425 15488 ft 297 kts 141°
2026-05-06 01:13 -34.61144 138.21962 15202 ft 295 kts 145°
2026-05-06 01:13 -34.62808 138.23419 14883 ft 296 kts 146°
2026-05-06 01:13 -34.64478 138.24878 14537 ft 296 kts 146°
2026-05-06 01:13 -34.66134 138.26325 14195 ft 295 kts 146°
2026-05-06 01:14 -34.69468 138.29187 13519 ft 294 kts 147°
2026-05-06 01:14 -34.71128 138.30627 13124 ft 296 kts 146°
2026-05-06 01:14 -34.72754 138.32123 12755 ft 295 kts 143°
2026-05-06 01:15 -34.74357 138.33690 12410 ft 293 kts 142°
2026-05-06 01:15 -34.75906 138.35272 11998 ft 292 kts 141°
2026-05-06 01:15 -34.77422 138.36861 11601 ft 289 kts 141°
2026-05-06 01:15 -34.78716 138.38692 11201 ft 288 kts 123°
2026-05-06 01:16 -34.79587 138.40875 10889 ft 284 kts 113°
2026-05-06 01:16 -34.80067 138.43198 10469 ft 285 kts 96°
2026-05-06 01:16 -34.79932 138.45601 10037 ft 285 kts 83°
2026-05-06 01:16 -34.79651 138.47972 9633 ft 282 kts 84°
2026-05-06 01:17 -34.79475 138.50301 9254 ft 278 kts 89°
2026-05-06 01:17 -34.79468 138.52647 8873 ft 275 kts 92°
2026-05-06 01:17 -34.79480 138.54947 8525 ft 271 kts 92°
2026-05-06 01:17 -34.79358 138.57210 8115 ft 270 kts 82°
2026-05-06 01:18 -34.78771 138.59363 7772 ft 265 kts 63°
2026-05-06 01:18 -34.77790 138.61218 7380 ft 264 kts 57°
2026-05-06 01:18 -34.76769 138.63088 7016 ft 262 kts 56°
2026-05-06 01:18 -34.75741 138.64867 6718 ft 252 kts 55°
2026-05-06 01:19 -34.74733 138.66548 6452 ft 244 kts 56°
2026-05-06 01:19 -34.74099 138.68393 6158 ft 235 kts 84°
2026-05-06 01:19 -34.74336 138.70277 5797 ft 221 kts 118°
2026-05-06 01:19 -34.75184 138.71756 5433 ft 211 kts 133°
2026-05-06 01:20 -34.76150 138.73022 5177 ft 197 kts 136°
2026-05-06 01:20 -34.77104 138.74135 4863 ft 188 kts 146°
2026-05-06 01:20 -34.78257 138.74808 4544 ft 179 kts 168°
2026-05-06 01:20 -34.79442 138.74683 4274 ft 172 kts 202°
2026-05-06 01:21 -34.80461 138.73976 4019 ft 170 kts 220°
2026-05-06 01:21 -34.81249 138.72928 3829 ft 166 kts 229°
2026-05-06 01:21 -34.81972 138.71843 3652 ft 165 kts 230°
2026-05-06 01:21 -34.82713 138.70756 3470 ft 165 kts 229°
2026-05-06 01:22 -34.83458 138.69693 3312 ft 167 kts 229°
2026-05-06 01:22 -34.84211 138.68591 3128 ft 167 kts 230°
2026-05-06 01:22 -34.84935 138.67526 2901 ft 158 kts 229°
2026-05-06 01:22 -34.85636 138.66479 2703 ft 159 kts 230°
2026-05-06 01:23 -34.86346 138.65462 2492 ft 157 kts 227°
2026-05-06 01:23 -34.87076 138.64485 2272 ft 156 kts 228°
2026-05-06 01:23 -34.87769 138.63478 2055 ft 155 kts 230°
2026-05-06 01:23 -34.88431 138.62463 1878 ft 153 kts 230°
2026-05-06 01:24 -34.89090 138.61441 1690 ft 152 kts 231°
2026-05-06 01:24 -34.89770 138.60474 1490 ft 147 kts 227°
2026-05-06 01:24 -34.90425 138.59596 1260 ft 135 kts 227°
2026-05-06 01:24 -34.91009 138.58757 1005 ft 127 kts 229°
2026-05-06 01:25 -34.91556 138.57959 811 ft 120 kts 229°
2026-05-06 01:25 -34.92086 138.57196 631 ft 114 kts 229°
2026-05-06 01:25 -34.92577 138.56480 493 ft 108 kts 228°
2026-05-06 01:25 -34.93057 138.55785 375 ft 106 kts 229°
2026-05-06 01:26 -34.93527 138.55110 256 ft 105 kts 229°
2026-05-06 01:26 -34.93998 138.54417 98 ft 105 kts 228°
2026-05-06 01:26 -34.94437 138.53784 31 ft 87 kts 230°
2026-05-06 01:26 -34.94715 138.53377 30 ft 44 kts 229°
2026-05-06 01:27 -34.94874 138.53145 28 ft 28 kts 229°
2026-05-06 01:27 -34.94944 138.53014 28 ft 12 kts 285°
2026-05-06 01:27 -34.94885 138.52989 28 ft 8 kts 15°
2026-05-06 01:27 -34.94823 138.53015 28 ft 10 kts 19°
2026-05-06 01:28 -34.94752 138.53047 28 ft 4 kts 20°
2026-05-06 01:28 -34.94723 138.53061 28 ft 6 kts 20°
2026-05-06 01:28 -34.94669 138.53085 28 ft 10 kts 20°
2026-05-06 01:28 -34.94593 138.53119 28 ft 12 kts 19°
2026-05-06 01:29 -34.94518 138.53152 31 ft 10 kts 16°
2026-05-06 01:29 -34.94455 138.53111 30 ft 12 kts 304°
2026-05-06 01:29 -34.94449 138.53020 28 ft 10 kts 249°
2026-05-06 01:29 -34.94498 138.52953 28 ft 10 kts 218°
2026-05-06 01:30 -34.94556 138.52899 28 ft 10 kts 217°
2026-05-06 01:30 -34.94612 138.52847 28 ft 10 kts 216°
2026-05-06 01:30 -34.94667 138.52795 28 ft 9 kts 218°
2026-05-06 01:30 -34.94721 138.52742 28 ft 9 kts 217°
2026-05-06 01:31 -34.94775 138.52692 28 ft 9 kts 217°
2026-05-06 01:31 -34.94829 138.52641 28 ft 9 kts 217°
2026-05-06 01:31 -34.94883 138.52591 28 ft 10 kts 218°
2026-05-06 01:31 -34.94949 138.52528 28 ft 11 kts 217°
2026-05-06 01:32 -34.95018 138.52464 28 ft 12 kts 217°
2026-05-06 01:32 -34.95087 138.52399 28 ft 11 kts 217°
2026-05-06 01:32 -34.95127 138.52361 28 ft 5 kts 220°
2026-05-06 01:32 -34.95116 138.52316 28 ft 7 kts 307°
2026-05-06 01:33 -34.95084 138.52266 28 ft 6 kts 307°
2026-05-06 01:33 -34.95050 138.52258 28 ft 3 kts 44°
2026-05-06 01:33 -34.95021 138.52255 28 ft 2 kts 323°
2026-05-06 01:33 -34.95002 138.52235 28 ft 4 kts 298°
2026-05-06 01:34 -34.95007 138.52214 28 ft 2 kts 229°
2026-05-06 01:34 -34.95010 138.52211 28 ft 0 kts 228°